• In Belarus
  • List of Countries
  • For 7 days
  • Water Temperature
  • Weather Map
  • Weather Widgets
  • user-avatar
    Login

    Hourly Weather Zhlobin

    Today, 2 April, Thursday

    Time Temperature Precipitation Wind Pressure Humidity
    00:00 -2°C° 0 mm 4 mps 746 mmHg 73%
    01:00 -2°C° 0 mm 4 mps 746 mmHg 75%
    02:00 -2°C° 0 mm 3 mps 746 mmHg 81%
    03:00 -3°C° 0 mm 4 mps 746 mmHg 82%
    04:00 -3°C° 0 mm 4 mps 745 mmHg 83%
    05:00 -3°C° 0 mm 4 mps 745 mmHg 84%
    06:00 -3°C° 0 mm 4 mps 745 mmHg 81%
    07:00 -2°C° 0 mm 5 mps 745 mmHg 78%
    08:00 -1°C° 0 mm 5 mps 745 mmHg 75%
    09:00 +1°C° 0 mm 6 mps 745 mmHg 70%
    10:00 +2°C° 0 mm 6 mps 744 mmHg 65%
    11:00 +4°C° 0 mm 6 mps 744 mmHg 60%
    12:00 +4°C° 0 mm 6 mps 744 mmHg 59%
    13:00 +5°C° 0 mm 6 mps 744 mmHg 58%
    14:00 +5°C° 0 mm 6 mps 744 mmHg 57%
    15:00 +6°C° 0 mm 5 mps 744 mmHg 59%
    16:00 +6°C° 0 mm 5 mps 744 mmHg 61%
    17:00 +6°C° 0 mm 4 mps 743 mmHg 64%
    18:00 +4°C° 0 mm 3 mps 744 mmHg 68%
    19:00 +3°C° 0 mm 3 mps 744 mmHg 72%
    20:00 +2°C° 0 mm 3 mps 744 mmHg 76%
    21:00 +1°C° 0 mm 3 mps 744 mmHg 77%
    22:00 +1°C° 0 mm 3 mps 743 mmHg 79%
    23:00 +1°C° 0 mm 3 mps 743 mmHg 80%

    Tomorrow, 3 April, Friday

    Time Temperature Precipitation Wind Pressure Humidity
    00:00 0°C° 0 mm 3 mps 743 mmHg 81%
    01:00 0°C° 0 mm 3 mps 743 mmHg 81%
    02:00 -1°C° 0 mm 4 mps 743 mmHg 81%
    03:00 -1°C° 0 mm 4 mps 743 mmHg 80%
    04:00 -1°C° 0 mm 4 mps 743 mmHg 78%
    05:00 0°C° 0 mm 5 mps 742 mmHg 77%
    06:00 +1°C° 0 mm 5 mps 742 mmHg 72%
    07:00 +2°C° 0 mm 6 mps 742 mmHg 67%
    08:00 +3°C° 0 mm 7 mps 742 mmHg 61%
    09:00 +4°C° 0 mm 7 mps 742 mmHg 56%
    10:00 +6°C° 0 mm 8 mps 742 mmHg 50%
    11:00 +9°C° 0 mm 8 mps 741 mmHg 44%
    12:00 +9°C° 0 mm 8 mps 742 mmHg 44%
    13:00 +10°C° 0 mm 8 mps 742 mmHg 43%
    14:00 +10°C° 0 mm 8 mps 742 mmHg 43%
    15:00 +10°C° 0 mm 7 mps 742 mmHg 46%
    16:00 +9°C° 0 mm 7 mps 742 mmHg 50%
    17:00 +9°C° 0 mm 6 mps 742 mmHg 54%
    18:00 +7°C° 0 mm 5 mps 743 mmHg 58%
    19:00 +6°C° 0 mm 5 mps 743 mmHg 63%
    20:00 +4°C° 0 mm 4 mps 744 mmHg 68%
    21:00 +4°C° 0 mm 4 mps 745 mmHg 70%
    22:00 +3°C° 0 mm 3 mps 745 mmHg 72%
    23:00 +2°C° 0 mm 3 mps 746 mmHg 74%

    Day after tomorrow, 4 April, Saturday

    Time Temperature Precipitation Wind Pressure Humidity
    00:00 +2°C° 0 mm 3 mps 746 mmHg 74%
    01:00 +2°C° 0 mm 3 mps 747 mmHg 75%
    02:00 0°C° 0 mm 4 mps 747 mmHg 75%
    03:00 0°C° 0 mm 4 mps 748 mmHg 76%
    04:00 -1°C° 0 mm 4 mps 749 mmHg 77%
    05:00 0°C° 0 mm 3 mps 749 mmHg 78%
    06:00 0°C° 0 mm 4 mps 750 mmHg 72%
    07:00 0°C° 0 mm 5 mps 751 mmHg 65%
    08:00 +1°C° 0 mm 5 mps 751 mmHg 58%
    09:00 +2°C° 0 mm 5 mps 752 mmHg 51%
    10:00 +5°C° 0 mm 5 mps 752 mmHg 45%
    11:00 +6°C° 0 mm 5 mps 752 mmHg 39%
    12:00 +6°C° 0 mm 5 mps 753 mmHg 38%
    13:00 +7°C° 0 mm 5 mps 753 mmHg 36%
    14:00 +7°C° 0 mm 5 mps 753 mmHg 35%
    15:00 +7°C° 0 mm 5 mps 753 mmHg 37%
    16:00 +7°C° 0 mm 5 mps 753 mmHg 39%
    17:00 +6°C° 0 mm 5 mps 754 mmHg 41%
    18:00 +5°C° 0 mm 4 mps 754 mmHg 48%
    19:00 +4°C° 0 mm 3 mps 755 mmHg 55%
    20:00 +3°C° 0 mm 3 mps 755 mmHg 62%
    21:00 +2°C° 0 mm 3 mps 756 mmHg 65%
    22:00 +2°C° 0 mm 3 mps 756 mmHg 67%
    23:00 +1°C° 0 mm 3 mps 757 mmHg 69%

    5 April, Sunday

    Time Temperature Precipitation Wind Pressure Humidity
    00:00 +1°C° 0 mm 3 mps 757 mmHg 71%
    01:00 -1°C° 0 mm 4 mps 758 mmHg 72%
    02:00 -1°C° 0 mm 4 mps 758 mmHg 74%
    03:00 -2°C° 0 mm 4 mps 759 mmHg 73%
    04:00 -2°C° 0 mm 4 mps 760 mmHg 73%
    05:00 -3°C° 0 mm 4 mps 760 mmHg 73%
    06:00 -2°C° 0 mm 4 mps 761 mmHg 66%
    07:00 -1°C° 0 mm 5 mps 762 mmHg 59%
    08:00 0°C° 0 mm 5 mps 762 mmHg 52%
    09:00 +1°C° 0 mm 5 mps 763 mmHg 45%
    10:00 +2°C° 0 mm 5 mps 763 mmHg 38%
    11:00 +3°C° 0 mm 5 mps 764 mmHg 31%
    12:00 +5°C° 0 mm 4 mps 764 mmHg 31%
    13:00 +6°C° 0 mm 4 mps 764 mmHg 30%
    14:00 +6°C° 0 mm 4 mps 764 mmHg 29%
    15:00 +6°C° 0 mm 4 mps 764 mmHg 30%
    16:00 +7°C° 0 mm 3 mps 764 mmHg 31%
    17:00 +7°C° 0 mm 3 mps 764 mmHg 33%
    18:00 +5°C° 0 mm 2 mps 764 mmHg 37%
    19:00 +4°C° 0 mm 2 mps 765 mmHg 41%
    20:00 +4°C° 0 mm 1 mps 765 mmHg 45%
    21:00 +3°C° 0 mm 1 mps 765 mmHg 46%
    22:00 +3°C° 0 mm 1 mps 766 mmHg 46%
    23:00 +2°C° 0 mm 0 mps 766 mmHg 47%

    6 April, Monday

    Time Temperature Precipitation Wind Pressure Humidity
    00:00 +2°C° 0 mm 1 mps 766 mmHg 48%
    01:00 +2°C° 0 mm 1 mps 766 mmHg 48%
    02:00 +2°C° 0 mm 1 mps 766 mmHg 49%
    03:00 +2°C° 0 mm 1 mps 767 mmHg 50%
    04:00 -1°C° 0 mm 2 mps 767 mmHg 51%
    05:00 -1°C° 0 mm 2 mps 767 mmHg 51%
    06:00 +2°C° 0 mm 2 mps 767 mmHg 48%
    07:00 +3°C° 0 mm 2 mps 767 mmHg 45%
    08:00 +4°C° 0 mm 2 mps 767 mmHg 42%
    09:00 +5°C° 0 mm 3 mps 767 mmHg 38%
    10:00 +7°C° 0 mm 3 mps 767 mmHg 34%
    11:00 +9°C° 0 mm 3 mps 767 mmHg 31%
    12:00 +10°C° 0 mm 3 mps 767 mmHg 30%
    13:00 +10°C° 0 mm 3 mps 767 mmHg 30%
    14:00 +11°C° 0 mm 3 mps 767 mmHg 29%
    15:00 +11°C° 0 mm 3 mps 766 mmHg 31%
    16:00 +11°C° 0 mm 3 mps 766 mmHg 33%
    17:00 +11°C° 0 mm 3 mps 765 mmHg 36%
    18:00 +9°C° 0 mm 3 mps 765 mmHg 40%
    19:00 +7°C° 0 mm 3 mps 765 mmHg 45%
    20:00 +5°C° 0 mm 3 mps 765 mmHg 49%
    21:00 +4°C° 0 mm 3 mps 765 mmHg 52%
    22:00 +4°C° 0 mm 3 mps 765 mmHg 54%
    23:00 +3°C° 0 mm 3 mps 765 mmHg 56%

    7 April, Tuesday

    Time Temperature Precipitation Wind Pressure Humidity
    00:00 +3°C° 0 mm 3 mps 765 mmHg 58%
    01:00 +2°C° 0 mm 3 mps 765 mmHg 59%
    02:00 +2°C° 0 mm 3 mps 765 mmHg 61%
    03:00 +1°C° 0 mm 3 mps 765 mmHg 62%
    04:00 +1°C° 0 mm 3 mps 765 mmHg 63%
    05:00 +1°C° 0 mm 3 mps 765 mmHg 64%
    06:00 +2°C° 0 mm 3 mps 765 mmHg 60%
    07:00 +4°C° 0 mm 4 mps 765 mmHg 56%
    08:00 +5°C° 0 mm 4 mps 765 mmHg 51%
    09:00 +7°C° 0 mm 4 mps 764 mmHg 47%
    10:00 +10°C° 0 mm 4 mps 764 mmHg 43%
    11:00 +12°C° 0 mm 4 mps 764 mmHg 40%
    12:00 +13°C° 0 mm 5 mps 764 mmHg 37%
    13:00 +15°C° 0 mm 5 mps 764 mmHg 33%
    14:00 +16°C° 0 mm 5 mps 763 mmHg 30%
    15:00 +16°C° 0 mm 5 mps 763 mmHg 34%
    16:00 +15°C° 0 mm 4 mps 762 mmHg 37%
    17:00 +16°C° 0 mm 3 mps 762 mmHg 41%
    18:00 +13°C° 0 mm 3 mps 762 mmHg 46%
    19:00 +11°C° 0 mm 3 mps 762 mmHg 52%
    20:00 +10°C° 0 mm 3 mps 762 mmHg 58%
    21:00 +9°C° 0 mm 3 mps 762 mmHg 60%
    22:00 +8°C° 0 mm 3 mps 762 mmHg 62%
    23:00 +8°C° 0 mm 3 mps 762 mmHg 65%
    Show more